This is the latest recevied weather packets stored in our database for station/object KB1RMA-13. If no packets are shown the sender has not sent any weather packets the latest 1 day(s).
| Time | Temp. | Humidity | Pressure | Rain* | Wind** | Luminosity | Snow |
|---|---|---|---|---|---|---|---|
| 1777979452 | 15° C | 70% | 1009.2 hPa | 0 mm | 0.89 m/s, 170° | 158 W/m² | - |
| 1777979149 | 15° C | 70% | 1009.3 hPa | 0 mm | 2.24 m/s, 237° | 143 W/m² | - |
| 1777978845 | 14.44° C | 70% | 1009.4 hPa | 0 mm | 3.58 m/s, 200° | 128 W/m² | - |
| 1777978542 | 14.44° C | 70% | 1009.2 hPa | 0 mm | 3.13 m/s, 208° | 121 W/m² | - |
| 1777978238 | 14.44° C | 71% | 1009.3 hPa | 0 mm | 1.79 m/s, 256° | 113 W/m² | - |
| 1777977935 | 13.89° C | 71% | 1009.2 hPa | 0 mm | 3.13 m/s, 204° | 94 W/m² | - |
| 1777977632 | 13.89° C | 71% | 1009.3 hPa | 0 mm | 4.47 m/s, 209° | 64 W/m² | - |
| 1777977329 | 13.89° C | 72% | 1009.4 hPa | 0 mm | 2.68 m/s, 229° | 73 W/m² | - |
| 1777977027 | 13.33° C | 73% | 1009.4 hPa | 0 mm | 1.79 m/s, 196° | 60 W/m² | - |
| 1777976723 | 13.33° C | 72% | 1009.4 hPa | 0 mm | 2.24 m/s, 213° | 37 W/m² | - |
| 1777976421 | 13.33° C | 72% | 1009.3 hPa | 0 mm | 3.58 m/s, 221° | 33 W/m² | - |
| 1777976120 | 13.33° C | 72% | 1009.3 hPa | 0 mm | 3.58 m/s, 221° | 33 W/m² | - |
| 1777975815 | 12.78° C | 73% | 1009.3 hPa | 0 mm | 2.24 m/s, 205° | 27 W/m² | - |
| 1777975513 | 12.78° C | 73% | 1009.4 hPa | 0 mm | 2.24 m/s, 185° | 24 W/m² | - |
| 1777975210 | 12.22° C | 74% | 1009.3 hPa | 0 mm | 3.13 m/s, 198° | 19 W/m² | - |
| 1777974905 | 12.22° C | 74% | 1009.3 hPa | 0 mm | 1.79 m/s, 207° | 14 W/m² | - |
| 1777974601 | 12.78° C | 74% | 1009.4 hPa | 0 mm | 1.79 m/s, 202° | 10 W/m² | - |
| 1777974299 | 12.22° C | 74% | 1009.2 hPa | 0 mm | 3.13 m/s, 211° | 8 W/m² | - |
| 1777973995 | 12.22° C | 74% | 1009.3 hPa | 0 mm | 5.81 m/s, 205° | 5 W/m² | - |
| 1777973692 | 12.22° C | 73% | 1009.4 hPa | 0 mm | 2.24 m/s, 225° | 4 W/m² | - |
| 1777973389 | 12.22° C | 74% | 1009.4 hPa | 0 mm | 2.24 m/s, 200° | 2 W/m² | - |
| 1777973086 | 12.22° C | 73% | 1009.2 hPa | 0 mm | 4.02 m/s, 224° | 1 W/m² | - |
| 1777972784 | 12.22° C | 73% | 1009.1 hPa | 0 mm | 2.68 m/s, 203° | 0 W/m² | - |
| 1777972481 | 12.22° C | 73% | 1009.2 hPa | 0 mm | 2.68 m/s, 189° | 0 W/m² | - |
| 1777972179 | 12.22° C | 74% | 1009.1 hPa | 0 mm | 3.58 m/s, 196° | 0 W/m² | - |
* Rain latest hour (hover to see other rain measurements)
** Current wind speed in m/s (hover to see current wind gust speed)